Aérodrome :
LOGIN :

S'inscrire | Disclaimer

   EN    FR    IT 

 










Légende :    VFR   VFR Marginal   IFR   IFR Intensif   IFR Très Intensif
Visi : 
Plafond : 
>= 8 km
>= 3000ft
5 à 8 km
1000 à 3000 ft
1500m à 5 km
500 à 1000 ft
800 à 1500m
200 à 500 ft
< 800m
< 200 ft
Symboles :   Orages  Brouillard  Fortes neiges  Fortes précipitations  Vent > 20 kt
SIGMETs :   Divers  Orages  Givrage  Turbulence  Onde Orograph.  Cendres Volcan.







- Altitude de l'aérodrome : 782 ft
- Code IATA : BGY


LIME - Orio al Serio International - Bergamo

DERNIER METAR :
  • 211720Z 18004KT CAVOK 19/07 Q1018 NOSIG

METARs EXPIRÉS :
  • 211650Z 20005KT 170V250 CAVOK 20/07 Q1018 NOSIG
  • 211620Z 25005KT 200V270 CAVOK 21/06 Q1018 NOSIG
  • 211550Z VRB05KT CAVOK 21/07 Q1018 NOSIG
  • 211520Z 23005KT 190V300 CAVOK 21/06 Q1018 NOSIG
  • 211450Z VRB05KT CAVOK 21/06 Q1018 NOSIG

TAF TAF LIME
Valide du 21 à 18h jusqu'au 22 à 18h UTC


211700Z 2118/2218 VRB05KT CAVOK
Pas de NOTAMs connus pour ce terrain.



MET'MAP, la Météo Aéronautique d'un coup d'oeil ! - Copyright ORBIFLY Décembre 2007 - Disclaimer

ORBIFLY MET'MAP TEAM :

Programmation & Développement : Alexandra Zaïnal
Conception & Développement : Baudouin d'Aumeries
Co-Programmation & Développement : Marc-Olivier Méhu
Soutien technique & logistique : Manuel Goepfert

Contact : metmap@orbifly.com




SOURCES & CREDITS :

   NOAA